Location: Sternwarte_Laufen
(47.9344°N, 12.9346°E)
Time: 04:02:56
(UTC+02:00)

ISS - Pass Details

Date: 07 July 2025
Orbit: 413 x 417 km, 51.6° (Epoch: 12 July)

Event Time Altitude Azimuth Distance (km) Brightness Sun altitude
Rises 00:24:36 0° 254° (WSW) 2,348 0.0 -18.6°
Reaches altitude 10° 00:26:42 10° 256° (WSW) 1,488 -1.0 -18.7°
Maximum altitude 00:30:02 69° 340° (NNW) 448 -3.5 -18.8°
Drops below altitude 10° 00:33:23 10° 66° (ENE) 1,495 -0.8 -18.9°
Sets 00:35:29 0° 68° (ENE) 2,361 0.2 -19.0°
